• en France
  • Liste des pays
  • À 7 jours
  • Température de l'eau
  • Carte satellitaire
  • Carte météo
  • Widgets météo
  • user-avatar
    Se connecter

    Météo par heure à Elbasan

    Ce jour, 25 Septembre, Mardi

    Heure Température Précipitation Vent Pression Humidité
    00:00 +18°C° 0 mm 3 m/s 738 mmHg 71%
    01:00 +17°C° 0 mm 4 m/s 738 mmHg 68%
    02:00 +15°C° 0 mm 4 m/s 739 mmHg 67%
    03:00 +14°C° 0 mm 4 m/s 739 mmHg 66%
    04:00 +14°C° 0 mm 4 m/s 739 mmHg 65%
    05:00 +14°C° 0 mm 4 m/s 740 mmHg 62%
    06:00 +14°C° 0 mm 4 m/s 740 mmHg 59%
    07:00 +14°C° 0 mm 5 m/s 740 mmHg 54%
    08:00 +16°C° 0 mm 5 m/s 740 mmHg 48%
    09:00 +17°C° 0 mm 5 m/s 740 mmHg 42%
    10:00 +20°C° 0 mm 5 m/s 740 mmHg 36%
    11:00 +21°C° 0 mm 5 m/s 740 mmHg 33%
    12:00 +22°C° 0 mm 5 m/s 740 mmHg 29%
    13:00 +22°C° 0 mm 5 m/s 740 mmHg 27%
    14:00 +22°C° 0 mm 5 m/s 740 mmHg 27%
    15:00 +21°C° 0 mm 5 m/s 740 mmHg 28%
    16:00 +21°C° 0 mm 5 m/s 740 mmHg 28%
    17:00 +19°C° 0 mm 5 m/s 741 mmHg 31%
    18:00 +17°C° 0 mm 4 m/s 741 mmHg 34%
    19:00 +14°C° 0 mm 4 m/s 741 mmHg 37%
    20:00 +13°C° 0 mm 4 m/s 742 mmHg 39%
    21:00 +12°C° 0 mm 4 m/s 742 mmHg 41%
    22:00 +11°C° 0 mm 4 m/s 743 mmHg 43%
    23:00 +11°C° 0 mm 4 m/s 743 mmHg 45%

    Demain, 26 Septembre, Mercredi

    Heure Température Précipitation Vent Pression Humidité
    00:00 +10°C° 0 mm 4 m/s 743 mmHg 47%
    01:00 +10°C° 0 mm 4 m/s 743 mmHg 50%
    02:00 +8°C° 0 mm 4 m/s 743 mmHg 52%
    03:00 +8°C° 0 mm 4 m/s 743 mmHg 53%
    04:00 +7°C° 0 mm 4 m/s 743 mmHg 55%
    05:00 +8°C° 0 mm 5 m/s 743 mmHg 53%
    06:00 +9°C° 0 mm 5 m/s 744 mmHg 50%
    07:00 +10°C° 0 mm 5 m/s 744 mmHg 47%
    08:00 +11°C° 0 mm 6 m/s 744 mmHg 42%
    09:00 +14°C° 0 mm 6 m/s 744 mmHg 37%
    10:00 +16°C° 0 mm 6 m/s 744 mmHg 31%
    11:00 +17°C° 0 mm 7 m/s 744 mmHg 30%
    12:00 +18°C° 0 mm 7 m/s 744 mmHg 28%
    13:00 +18°C° 0 mm 7 m/s 743 mmHg 26%
    14:00 +18°C° 0 mm 7 m/s 743 mmHg 27%
    15:00 +18°C° 0 mm 7 m/s 743 mmHg 27%
    16:00 +17°C° 0 mm 7 m/s 743 mmHg 27%
    17:00 +15°C° 0 mm 6 m/s 743 mmHg 31%
    18:00 +13°C° 0 mm 5 m/s 744 mmHg 35%
    19:00 +11°C° 0 mm 4 m/s 744 mmHg 39%
    20:00 +11°C° 0 mm 4 m/s 745 mmHg 41%
    21:00 +10°C° 0 mm 4 m/s 745 mmHg 44%
    22:00 +8°C° 0 mm 4 m/s 746 mmHg 47%
    23:00 +8°C° 0 mm 4 m/s 745 mmHg 48%

    Après-demain, 27 Septembre, Jeudi

    Heure Température Précipitation Vent Pression Humidité
    00:00 +8°C° 0 mm 3 m/s 745 mmHg 49%
    01:00 +8°C° 0 mm 3 m/s 745 mmHg 51%
    02:00 +7°C° 0 mm 3 m/s 745 mmHg 52%
    03:00 +7°C° 0 mm 3 m/s 745 mmHg 53%
    04:00 +7°C° 0 mm 3 m/s 744 mmHg 53%
    05:00 +8°C° 0 mm 3 m/s 744 mmHg 51%
    06:00 +9°C° 0 mm 3 m/s 744 mmHg 48%
    07:00 +10°C° 0 mm 3 m/s 744 mmHg 45%
    08:00 +12°C° 0 mm 4 m/s 744 mmHg 37%
    09:00 +14°C° 0 mm 4 m/s 744 mmHg 30%
    10:00 +18°C° 0 mm 4 m/s 743 mmHg 23%
    11:00 +19°C° 0 mm 4 m/s 743 mmHg 21%
    12:00 +20°C° 0 mm 5 m/s 742 mmHg 19%
    13:00 +21°C° 0 mm 5 m/s 742 mmHg 16%
    14:00 +21°C° 0 mm 4 m/s 741 mmHg 17%
    15:00 +21°C° 0 mm 4 m/s 741 mmHg 18%
    16:00 +21°C° 0 mm 4 m/s 740 mmHg 19%
    17:00 +19°C° 0 mm 4 m/s 740 mmHg 22%
    18:00 +15°C° 0 mm 4 m/s 741 mmHg 26%
    19:00 +13°C° 0 mm 3 m/s 741 mmHg 29%
    20:00 +12°C° 0 mm 3 m/s 741 mmHg 31%
    21:00 +12°C° 0 mm 3 m/s 741 mmHg 33%
    22:00 +11°C° 0 mm 3 m/s 740 mmHg 35%
    23:00 +11°C° 0 mm 3 m/s 740 mmHg 37%

    28 Septembre, Vendredi

    Heure Température Précipitation Vent Pression Humidité
    00:00 +11°C° 0 mm 3 m/s 740 mmHg 38%
    01:00 +10°C° 0 mm 3 m/s 739 mmHg 40%
    02:00 +10°C° 0 mm 3 m/s 739 mmHg 40%
    03:00 +10°C° 0 mm 3 m/s 738 mmHg 41%
    04:00 +10°C° 0 mm 3 m/s 738 mmHg 41%
    05:00 +11°C° 0 mm 3 m/s 738 mmHg 39%
    06:00 +12°C° 0 mm 3 m/s 737 mmHg 38%
    07:00 +13°C° 0 mm 3 m/s 737 mmHg 36%
    08:00 +17°C° 0 mm 3 m/s 737 mmHg 32%
    09:00 +19°C° 0 mm 3 m/s 737 mmHg 27%
    10:00 +22°C° 0 mm 4 m/s 736 mmHg 23%
    11:00 +23°C° 0 mm 4 m/s 736 mmHg 24%
    12:00 +25°C° 0 mm 3 m/s 735 mmHg 25%
    13:00 +26°C° 0 mm 3 m/s 735 mmHg 27%
    14:00 +26°C° 0 mm 3 m/s 734 mmHg 28%
    15:00 +25°C° 0 mm 4 m/s 734 mmHg 29%
    16:00 +25°C° 0 mm 4 m/s 733 mmHg 31%
    17:00 +22°C° 0 mm 3 m/s 733 mmHg 34%
    18:00 +20°C° 0 mm 3 m/s 734 mmHg 38%
    19:00 +18°C° 0 mm 3 m/s 734 mmHg 42%
    20:00 +17°C° 0 mm 3 m/s 734 mmHg 43%
    21:00 +17°C° 0 mm 3 m/s 734 mmHg 44%
    22:00 +16°C° 0 mm 2 m/s 734 mmHg 45%
    23:00 +16°C° 0 mm 2 m/s 733 mmHg 46%

    29 Septembre, Samedi

    Heure Température Précipitation Vent Pression Humidité
    00:00 +16°C° 0 mm 2 m/s 733 mmHg 48%
    01:00 +16°C° 0 mm 2 m/s 733 mmHg 49%
    02:00 +16°C° 0 mm 2 m/s 733 mmHg 49%
    03:00 +16°C° 0 mm 2 m/s 732 mmHg 50%
    04:00 +15°C° 0 mm 2 m/s 732 mmHg 50%
    05:00 +16°C° 0 mm 2 m/s 732 mmHg 48%
    06:00 +17°C° 0 mm 2 m/s 732 mmHg 47%
    07:00 +17°C° 0 mm 2 m/s 732 mmHg 45%
    08:00 +20°C° 0 mm 2 m/s 732 mmHg 41%
    09:00 +23°C° 0 mm 2 m/s 732 mmHg 37%
    10:00 +25°C° 0 mm 2 m/s 733 mmHg 33%
    11:00 +26°C° 0 mm 2 m/s 732 mmHg 32%
    12:00 +27°C° 0 mm 3 m/s 732 mmHg 32%
    13:00 +28°C° 0 mm 3 m/s 731 mmHg 31%
    14:00 +28°C° 0 mm 3 m/s 731 mmHg 32%
    15:00 +27°C° 0 mm 3 m/s 731 mmHg 33%
    16:00 +27°C° 0 mm 3 m/s 731 mmHg 34%
    17:00 +24°C° 0 mm 3 m/s 731 mmHg 38%
    18:00 +21°C° 0 mm 2 m/s 732 mmHg 43%
    19:00 +19°C° 0 mm 2 m/s 732 mmHg 48%
    20:00 +18°C° 0 mm 2 m/s 732 mmHg 48%
    21:00 +18°C° 0 mm 2 m/s 733 mmHg 48%
    22:00 +17°C° 0 mm 2 m/s 733 mmHg 48%
    23:00 +17°C° 0 mm 2 m/s 733 mmHg 48%

    30 Septembre, Dimanche

    Heure Température Précipitation Vent Pression Humidité
    00:00 +17°C° 0 mm 2 m/s 733 mmHg 48%
    01:00 +16°C° 0 mm 2 m/s 733 mmHg 49%
    02:00 +16°C° 0 mm 2 m/s 733 mmHg 49%
    03:00 +16°C° 0 mm 2 m/s 733 mmHg 49%
    04:00 +16°C° 0 mm 2 m/s 733 mmHg 49%
    05:00 +16°C° 0 mm 2 m/s 733 mmHg 48%
    06:00 +17°C° 0 mm 2 m/s 734 mmHg 46%
    07:00 +18°C° 0 mm 2 m/s 734 mmHg 45%
    08:00 +20°C° 0 mm 2 m/s 734 mmHg 41%
    09:00 +23°C° 0 mm 2 m/s 734 mmHg 37%
    10:00 +26°C° 0 mm 2 m/s 734 mmHg 34%
    11:00 +26°C° 0 mm 2 m/s 734 mmHg 34%
    12:00 +27°C° 0 mm 3 m/s 734 mmHg 35%
    13:00 +27°C° 0 mm 3 m/s 733 mmHg 36%
    14:00 +27°C° 0.2 mm 3 m/s 733 mmHg 40%
    15:00 +26°C° 0.2 mm 2 m/s 733 mmHg 44%
    16:00 +25°C° 0.2 mm 2 m/s 733 mmHg 48%
    17:00 +23°C° 0.4 mm 2 m/s 733 mmHg 56%
    18:00 +21°C° 0.4 mm 1 m/s 733 mmHg 65%
    19:00 +19°C° 0.4 mm 1 m/s 733 mmHg 73%
    20:00 +19°C° 0.2 mm 1 m/s 733 mmHg 73%
    21:00 +19°C° 0.2 mm 1 m/s 734 mmHg 74%
    22:00 +18°C° 0.2 mm 2 m/s 734 mmHg 74%
    23:00 +18°C° 0.4 mm 2 m/s 733 mmHg 76%
    Voir plus